Terug naar catalogus

NORSAT 2

ActiefWetenschapSSO
NORAD 42828·PAYLOAD·🇳🇴 Norway

Gelanceerd Jul 14, 2017 vanaf Baikonur Cosmodrome

Loading…

Volgende Passages (komende 24 uur)

TLE

VersSource: Space-Track

Epoch: Sep 14, 2026, 11:10 UTC

1 42828U 17042D   26257.46532758  .00007816  00000-0  33025-3 0  9998
2 42828  97.4105  69.6328 0010525  96.9280 263.3155 15.23465714501327

Volg NORSAT 2 in realtime met AllMySat

Download on the App Store